TVS3416 GCXO-LEMI

Flight info

Callsign TVS3416
Flight time N/A
Altitude 36000
Route KORAL UG5 NISUR/N0441F380 UG5 SAK UR975 DONAS/N0439F370 UR975 FES/N0444F380 UG850 BERUM N860 AMR/N0400F280 L112 DINCO
Aircraft A320/M-SDE2E3FGIJ1RWXYZ/LB1

Departure

Time N/A
Airport Tenerife Norte-Ciudad de La Laguna Airport (GCXO)

Arrival

Time 2026-04-24 19:57
Airport Region of Murcia International Airport (LEMI)
Time Latitude Longitude Altitude Speed Heading
2026-04-24 16:48 28.48725 -16.34824 2062 ft 0 kts 58°
2026-04-24 18:54 33.73128 -6.35097 36071 ft 488 kts 76°
2026-04-24 18:55 33.74940 -6.23117 36072 ft 488 kts 76°
2026-04-24 18:56 33.76164 -6.15095 36073 ft 488 kts 76°
2026-04-24 18:56 33.77373 -6.07067 36095 ft 488 kts 76°
2026-04-24 18:57 33.78578 -5.99032 36089 ft 489 kts 76°
2026-04-24 18:57 33.79769 -5.90989 36085 ft 489 kts 76°
2026-04-24 18:58 33.80960 -5.82932 36089 ft 490 kts 76°
2026-04-24 18:58 33.82151 -5.74872 36128 ft 489 kts 76°
2026-04-24 18:59 33.83336 -5.66817 36125 ft 489 kts 77°
2026-04-24 18:59 33.84518 -5.58761 36107 ft 489 kts 77°
2026-04-24 19:00 33.85690 -5.50696 36097 ft 490 kts 77°
2026-04-24 19:00 33.86857 -5.42621 36095 ft 490 kts 77°
2026-04-24 19:01 33.88011 -5.34602 36102 ft 490 kts 77°
2026-04-24 19:01 33.89168 -5.26526 36114 ft 490 kts 78°
2026-04-24 19:02 33.90138 -5.19762 36120 ft 490 kts 78°
2026-04-24 19:02 33.91482 -5.10377 36204 ft 489 kts 76°
2026-04-24 19:02 33.92033 -5.07705 36373 ft 485 kts 69°
2026-04-24 19:03 33.93287 -5.03966 36622 ft 479 kts 58°
2026-04-24 19:03 33.95022 -5.00591 36875 ft 471 kts 48°
2026-04-24 19:03 33.97159 -4.97646 37060 ft 464 kts 39°
2026-04-24 19:04 34.02184 -4.92804 37110 ft 465 kts 32°
2026-04-24 19:04 34.07318 -4.88108 37114 ft 467 kts 32°
2026-04-24 19:05 34.12526 -4.83327 37125 ft 467 kts 33°
2026-04-24 19:05 34.17670 -4.78615 37096 ft 467 kts 33°
2026-04-24 19:06 34.22847 -4.73863 37100 ft 467 kts 33°
2026-04-24 19:06 34.28022 -4.69113 37095 ft 467 kts 33°
2026-04-24 19:07 34.33198 -4.64361 37095 ft 467 kts 33°
2026-04-24 19:07 34.38364 -4.59597 37090 ft 467 kts 33°
2026-04-24 19:08 34.43520 -4.54818 37111 ft 467 kts 35°
2026-04-24 19:08 34.48663 -4.50010 37098 ft 467 kts 35°
2026-04-24 19:09 34.53810 -4.45196 37095 ft 467 kts 35°
2026-04-24 19:09 34.58955 -4.40382 37094 ft 467 kts 35°
2026-04-24 19:10 34.64108 -4.35558 37094 ft 468 kts 35°
2026-04-24 19:10 34.69259 -4.30731 37118 ft 468 kts 36°
2026-04-24 19:11 34.74400 -4.25895 37116 ft 467 kts 36°
2026-04-24 19:11 34.79540 -4.21050 37115 ft 467 kts 36°
2026-04-24 19:12 34.84666 -4.16201 37116 ft 466 kts 36°
2026-04-24 19:12 34.89792 -4.11357 37106 ft 466 kts 36°
2026-04-24 19:13 34.94046 -4.07324 37116 ft 466 kts 36°
2026-04-24 19:13 35.00019 -4.01675 37118 ft 464 kts 37°
2026-04-24 19:14 35.05111 -3.96834 37118 ft 464 kts 37°
2026-04-24 19:14 35.10197 -3.91992 37112 ft 463 kts 36°
2026-04-24 19:15 35.15286 -3.87162 37108 ft 463 kts 36°
2026-04-24 19:15 35.20326 -3.82364 37109 ft 462 kts 37°
2026-04-24 19:16 35.28007 -3.75247 37101 ft 461 kts 36°
2026-04-24 19:16 35.33134 -3.70542 37107 ft 461 kts 36°
2026-04-24 19:17 35.38247 -3.65809 37107 ft 461 kts 36°
2026-04-24 19:17 35.43348 -3.61059 37109 ft 460 kts 36°
2026-04-24 19:18 35.48447 -3.56309 37113 ft 460 kts 37°
2026-04-24 19:18 35.53517 -3.51582 36891 ft 456 kts 37°
2026-04-24 19:19 35.56043 -3.49225 36756 ft 456 kts 37°
2026-04-24 19:19 35.58566 -3.46863 36629 ft 456 kts 37°
2026-04-24 19:19 35.61091 -3.44497 36510 ft 456 kts 37°
2026-04-24 19:19 35.63615 -3.42130 36375 ft 456 kts 38°
2026-04-24 19:20 35.66138 -3.39764 36230 ft 457 kts 38°
2026-04-24 19:20 35.68662 -3.37394 36062 ft 456 kts 38°
2026-04-24 19:20 35.73703 -3.32664 36103 ft 454 kts 38°
2026-04-24 19:21 35.78721 -3.27950 36108 ft 453 kts 38°
2026-04-24 19:21 35.83694 -3.23258 36112 ft 453 kts 38°
2026-04-24 19:22 35.88675 -3.18498 36118 ft 453 kts 39°
2026-04-24 19:22 35.93636 -3.13699 36116 ft 453 kts 39°
2026-04-24 19:23 35.98595 -3.08889 36118 ft 453 kts 39°
2026-04-24 19:23 36.03564 -3.04093 36092 ft 453 kts 39°
2026-04-24 19:24 36.08541 -2.99292 36102 ft 454 kts 39°
2026-04-24 19:24 36.13517 -2.94469 36104 ft 455 kts 39°
2026-04-24 19:25 36.18496 -2.89630 36104 ft 455 kts 39°
2026-04-24 19:25 36.23488 -2.84801 36113 ft 455 kts 39°
2026-04-24 19:26 36.28508 -2.80016 36122 ft 455 kts 39°
2026-04-24 19:26 36.31025 -2.77625 35993 ft 456 kts 39°
2026-04-24 19:26 36.33532 -2.75235 35746 ft 454 kts 39°
2026-04-24 19:27 36.36031 -2.72844 35491 ft 454 kts 39°
2026-04-24 19:27 36.38528 -2.70446 35244 ft 454 kts 40°
2026-04-24 19:27 36.40992 -2.68081 35004 ft 454 kts 40°
2026-04-24 19:27 36.43490 -2.65680 34752 ft 456 kts 41°
2026-04-24 19:28 36.46002 -2.63265 34513 ft 457 kts 41°
2026-04-24 19:28 36.48514 -2.60840 34266 ft 456 kts 42°
2026-04-24 19:28 36.50991 -2.58399 34015 ft 454 kts 42°
2026-04-24 19:28 36.53448 -2.55940 33744 ft 452 kts 43°
2026-04-24 19:29 36.58306 -2.51042 33198 ft 447 kts 42°
2026-04-24 19:29 36.60717 -2.48613 32931 ft 445 kts 42°
2026-04-24 19:29 36.63121 -2.46199 32666 ft 443 kts 42°
2026-04-24 19:30 36.65514 -2.43799 32401 ft 441 kts 42°
2026-04-24 19:30 36.67896 -2.41412 32141 ft 438 kts 42°
2026-04-24 19:30 36.70265 -2.39040 31884 ft 436 kts 41°
2026-04-24 19:30 36.72626 -2.36681 31619 ft 434 kts 41°
2026-04-24 19:31 36.74972 -2.34337 31367 ft 430 kts 41°
2026-04-24 19:31 36.77293 -2.32015 31119 ft 427 kts 41°
2026-04-24 19:31 36.79601 -2.29700 30871 ft 424 kts 41°
2026-04-24 19:31 36.81822 -2.27297 30607 ft 421 kts 49°
2026-04-24 19:32 36.83720 -2.24538 30368 ft 417 kts 57°
2026-04-24 19:32 36.85266 -2.21502 30132 ft 413 kts 64°
2026-04-24 19:32 36.86649 -2.18371 29847 ft 411 kts 64°
2026-04-24 19:32 36.88031 -2.15249 29565 ft 410 kts 64°
2026-04-24 19:33 36.89405 -2.12141 29292 ft 408 kts 64°
2026-04-24 19:33 36.90775 -2.09040 29012 ft 407 kts 64°
2026-04-24 19:33 36.92137 -2.05951 28739 ft 405 kts 64°
2026-04-24 19:33 36.93487 -2.02881 28421 ft 400 kts 64°
2026-04-24 19:34 36.94818 -1.99845 27973 ft 397 kts 64°
2026-04-24 19:34 36.96138 -1.96833 27537 ft 393 kts 64°
2026-04-24 19:34 36.97447 -1.93846 27106 ft 390 kts 64°
2026-04-24 19:34 36.98747 -1.90880 26672 ft 387 kts 64°
2026-04-24 19:35 37.00016 -1.87975 26270 ft 384 kts 64°
2026-04-24 19:35 37.01305 -1.85015 25851 ft 381 kts 64°
2026-04-24 19:35 37.02550 -1.82150 25441 ft 378 kts 64°
2026-04-24 19:35 37.03804 -1.79267 25015 ft 376 kts 64°
2026-04-24 19:36 37.05053 -1.76398 24583 ft 374 kts 64°
2026-04-24 19:36 37.06294 -1.73544 24153 ft 373 kts 64°
2026-04-24 19:36 37.07531 -1.70695 23699 ft 372 kts 64°
2026-04-24 19:36 37.08764 -1.67854 23199 ft 370 kts 64°
2026-04-24 19:37 37.09990 -1.65028 22747 ft 368 kts 64°
2026-04-24 19:37 37.11203 -1.62224 22311 ft 365 kts 64°
2026-04-24 19:37 37.12410 -1.59432 21858 ft 363 kts 64°
2026-04-24 19:37 37.13611 -1.56656 21417 ft 362 kts 64°
2026-04-24 19:38 37.14806 -1.53894 20981 ft 360 kts 64°
2026-04-24 19:38 37.15998 -1.51140 20528 ft 359 kts 64°
2026-04-24 19:38 37.17185 -1.48393 20103 ft 358 kts 64°
2026-04-24 19:38 37.18367 -1.45654 19666 ft 357 kts 64°
2026-04-24 19:39 37.19547 -1.42917 19229 ft 357 kts 64°
2026-04-24 19:39 37.20726 -1.40182 18800 ft 357 kts 64°
2026-04-24 19:39 37.21908 -1.37442 18364 ft 357 kts 64°
2026-04-24 19:39 37.23086 -1.34706 17895 ft 356 kts 63°
2026-04-24 19:40 37.24258 -1.31981 17460 ft 354 kts 63°
2026-04-24 19:40 37.25607 -1.29407 17039 ft 353 kts 51°
2026-04-24 19:40 37.27354 -1.27250 16619 ft 353 kts 38°
2026-04-24 19:40 37.29338 -1.25448 16201 ft 352 kts 36°
2026-04-24 19:41 37.31327 -1.23663 15786 ft 351 kts 36°
2026-04-24 19:41 37.33308 -1.21879 15365 ft 350 kts 36°
2026-04-24 19:41 37.35280 -1.20095 14948 ft 349 kts 36°
2026-04-24 19:41 37.37248 -1.18314 14537 ft 348 kts 36°
2026-04-24 19:42 37.39188 -1.16561 14118 ft 348 kts 36°
2026-04-24 19:42 37.41154 -1.14786 13677 ft 347 kts 36°
2026-04-24 19:42 37.43137 -1.12994 13238 ft 345 kts 36°
2026-04-24 19:42 37.45087 -1.11232 12695 ft 341 kts 36°
2026-04-24 19:43 37.46978 -1.09518 12304 ft 333 kts 36°
2026-04-24 19:43 37.48830 -1.07838 11896 ft 332 kts 36°
2026-04-24 19:43 37.50774 -1.06295 11475 ft 330 kts 21°
2026-04-24 19:43 37.53022 -1.05751 11062 ft 325 kts 356°
2026-04-24 19:44 37.55212 -1.05980 10897 ft 315 kts 358°
2026-04-24 19:44 37.57279 -1.05359 10837 ft 303 kts 30°
2026-04-24 19:44 37.58737 -1.03551 10772 ft 295 kts 63°
2026-04-24 19:44 37.59207 -1.01088 10704 ft 290 kts 96°
2026-04-24 19:45 37.58566 -0.98742 10632 ft 284 kts 130°
2026-04-24 19:45 37.57050 -0.97267 10576 ft 275 kts 164°
2026-04-24 19:45 37.55190 -0.97127 10513 ft 271 kts 197°
2026-04-24 19:45 37.53609 -0.98347 10455 ft 270 kts 231°
2026-04-24 19:46 37.52822 -1.00482 10400 ft 274 kts 257°
2026-04-24 19:46 37.52555 -1.02874 10343 ft 276 kts 263°
2026-04-24 19:46 37.52359 -1.05280 10282 ft 275 kts 263°
2026-04-24 19:46 37.52138 -1.07681 10235 ft 275 kts 262°
2026-04-24 19:47 37.51956 -1.10074 10172 ft 274 kts 264°
2026-04-24 19:47 37.51884 -1.12482 10085 ft 276 kts 268°
2026-04-24 19:47 37.51953 -1.14934 10023 ft 284 kts 274°
2026-04-24 19:47 37.52175 -1.17404 9864 ft 285 kts 278°
2026-04-24 19:48 37.52539 -1.19858 9450 ft 284 kts 282°
2026-04-24 19:48 37.53038 -1.22263 9087 ft 283 kts 286°
2026-04-24 19:48 37.54354 -1.26724 8820 ft 261 kts 293°
2026-04-24 19:49 37.55974 -1.30623 8563 ft 241 kts 300°
2026-04-24 19:49 37.57901 -1.34148 7530 ft 255 kts 307°
2026-04-24 19:50 37.61079 -1.38481 6160 ft 243 kts 317°
2026-04-24 19:50 37.62391 -1.39717 5845 ft 229 kts 341°
2026-04-24 19:51 37.64940 -1.38569 5337 ft 205 kts 68°
2026-04-24 19:51 37.65261 -1.36857 5163 ft 198 kts 79°
2026-04-24 19:52 37.66180 -1.33716 4633 ft 187 kts 57°
2026-04-24 19:52 37.66951 -1.32402 4390 ft 185 kts 53°
2026-04-24 19:52 37.67748 -1.31123 4183 ft 185 kts 52°
2026-04-24 19:52 37.68542 -1.29860 3962 ft 183 kts 52°
2026-04-24 19:53 37.69328 -1.28614 3744 ft 181 kts 52°
2026-04-24 19:53 37.70111 -1.27375 3520 ft 181 kts 52°
2026-04-24 19:53 37.71673 -1.24903 3073 ft 180 kts 52°
2026-04-24 19:54 37.72428 -1.23714 2849 ft 167 kts 51°
2026-04-24 19:54 37.73149 -1.22659 2644 ft 150 kts 49°
2026-04-24 19:54 37.73817 -1.21703 2430 ft 142 kts 49°
2026-04-24 19:54 37.74444 -1.20766 2225 ft 138 kts 53°
2026-04-24 19:55 37.74825 -1.20123 2082 ft 138 kts 53°
2026-04-24 19:55 37.75574 -1.18816 1742 ft 137 kts 54°
2026-04-24 19:55 37.76145 -1.17847 1547 ft 138 kts 50°
2026-04-24 19:55 37.76778 -1.16951 1423 ft 137 kts 45°
2026-04-24 19:56 37.77453 -1.16108 1258 ft 136 kts 43°
2026-04-24 19:56 37.78133 -1.15267 1047 ft 137 kts 44°
2026-04-24 19:56 37.78797 -1.14411 846 ft 136 kts 45°
2026-04-24 19:56 37.79462 -1.13561 702 ft 135 kts 45°
2026-04-24 19:57 37.80093 -1.12752 645 ft 119 kts 45°
2026-04-24 19:57 37.80580 -1.12148 647 ft 74 kts 45°
2026-04-24 19:57 37.80817 -1.11831 643 ft 30 kts 46°
2026-04-24 19:57 37.80952 -1.11657 646 ft 26 kts 44°
2026-04-24 19:58 37.81081 -1.11494 648 ft 26 kts 45°
2026-04-24 19:58 37.81193 -1.11351 648 ft 14 kts 46°
2026-04-24 19:58 37.81257 -1.11306 647 ft 11 kts 351°
2026-04-24 19:58 37.81314 -1.11356 649 ft 9 kts 313°
2026-04-24 19:59 37.81345 -1.11409 650 ft 9 kts 292°
2026-04-24 19:59 37.81324 -1.11482 653 ft 8 kts 227°
2026-04-24 19:59 37.81290 -1.11526 652 ft 6 kts 224°
2026-04-24 19:59 37.81263 -1.11558 653 ft 7 kts 222°
2026-04-24 20:00 37.81208 -1.11622 652 ft 15 kts 223°
2026-04-24 20:00 37.81128 -1.11720 650 ft 16 kts 226°
2026-04-24 20:00 37.81082 -1.11786 650 ft 6 kts 228°
2026-04-24 20:00 37.81053 -1.11823 649 ft 6 kts 223°
2026-04-24 20:01 37.81022 -1.11861 648 ft 7 kts 227°
2026-04-24 20:01 37.81013 -1.11873 648 ft 1 kts 227°
2026-04-24 20:02 37.81010 -1.11877 648 ft 1 kts 227°
2026-04-24 20:02 37.80996 -1.11895 647 ft 4 kts 227°
2026-04-24 20:03 37.80973 -1.11926 646 ft 5 kts 224°
2026-04-24 20:03 37.80946 -1.11958 646 ft 5 kts 224°
2026-04-24 20:03 37.80920 -1.11993 647 ft 8 kts 227°
2026-04-24 20:03 37.80871 -1.12061 648 ft 10 kts 228°
2026-04-24 20:04 37.80826 -1.12120 648 ft 9 kts 226°
2026-04-24 20:04 37.80785 -1.12173 647 ft 8 kts 225°
2026-04-24 20:04 37.80750 -1.12215 648 ft 6 kts 223°
2026-04-24 20:04 37.80728 -1.12241 649 ft 3 kts 223°
2026-04-24 20:05 37.80698 -1.12278 650 ft 9 kts 225°
2026-04-24 20:05 37.80658 -1.12328 651 ft 7 kts 226°
2026-04-24 20:05 37.80625 -1.12372 651 ft 7 kts 226°
2026-04-24 20:05 37.80589 -1.12420 649 ft 8 kts 226°
2026-04-24 20:06 37.80548 -1.12475 649 ft 10 kts 227°
2026-04-24 20:06 37.80501 -1.12537 649 ft 12 kts 226°
2026-04-24 20:06 37.80442 -1.12616 649 ft 12 kts 226°
2026-04-24 20:06 37.80398 -1.12700 647 ft 12 kts 264°
2026-04-24 20:07 37.80421 -1.12755 648 ft 11 kts 312°
2026-04-24 20:07 37.80450 -1.12849 647 ft 8 kts 243°
2026-04-24 20:07 37.80416 -1.12899 647 ft 7 kts 227°
2026-04-24 20:07 37.80394 -1.12928 647 ft 2 kts 226°
2026-04-24 20:08 37.80387 -1.12942 647 ft 2 kts 251°
2026-04-24 20:08 37.80398 -1.12968 647 ft 3 kts 306°
2026-04-24 20:08 37.80410 -1.12984 648 ft 2 kts 313°
2026-04-24 20:08 37.80419 -1.12995 647 ft 1 kts 315°
2026-04-24 20:09 37.80433 -1.13012 647 ft 2 kts 315°
2026-04-24 20:09 37.80436 -1.13016 647 ft 0 kts 315°